This is the latest recevied weather packets stored in our database for station/object OK2VOP-6. If no packets are shown the sender has not sent any weather packets the latest 10 day(s).
| Time | Temp. | Humidity | Pressure | Rain* | Wind** | Luminosity | Snow |
|---|---|---|---|---|---|---|---|
| 1788481886 | 18.33° C | 43% | - | 0 mm | - | - | - |
| 1788480683 | 18.33° C | 44% | - | 0 mm | - | - | - |
| 1788479476 | 18.33° C | 44% | - | 0 mm | - | - | - |
| 1788478271 | 18.33° C | 43% | - | 0 mm | - | - | - |
| 1788477067 | 18.33° C | 43% | - | 0 mm | - | - | - |
| 1788475862 | 18.89° C | 41% | - | 0 mm | - | - | - |
| 1788474657 | 19.44° C | 39% | - | 0 mm | - | - | - |
| 1788473452 | 20° C | 35% | - | 0 mm | - | - | - |
| 1788472247 | 20.56° C | 32% | - | 0 mm | - | - | - |
| 1788471043 | 21.11° C | 31% | - | 0 mm | - | - | - |
| 1788469838 | 21.11° C | 31% | - | 0 mm | - | - | - |
| 1788468653 | 21.11° C | 30% | - | 0 mm | - | - | - |
| 1788467428 | 21.11° C | 28% | - | 0 mm | - | - | - |
| 1788466223 | 20° C | 29% | - | 0 mm | - | - | - |
| 1788463814 | 19.44° C | 31% | - | 0 mm | - | - | - |
| 1788462608 | 20° C | 29% | - | 0 mm | - | - | - |
| 1788461405 | 21.11° C | 26% | - | 0 mm | - | - | - |
| 1788460199 | 22.22° C | 21% | - | 0 mm | - | - | - |
| 1788458994 | 22.78° C | 20% | - | 0 mm | - | - | - |
| 1788457788 | 22.78° C | 19% | - | 0 mm | - | - | - |
| 1788456584 | 23.89° C | 16% | - | 0 mm | - | - | - |
| 1788455379 | 23.89° C | 15% | - | 0 mm | - | - | - |
| 1788454174 | 24.44° C | 15% | - | 0 mm | - | - | - |
| 1788452969 | 25° C | 16% | - | 0 mm | - | - | - |
| 1788451764 | 25° C | 15% | - | 0 mm | - | - | - |
* Rain latest hour (hover to see other rain measurements)
** Current wind speed in m/s (hover to see current wind gust speed)